When you browse on this site, cookies collect data to enhance your experience and personalize the content and advertising you see.
Visit our Privacy Policy to learn more. By continuing to use the site, you agree to this use of cookies and data.
  • en France
  • Liste des pays
  • À 7 jours
  • Température de l'eau
  • Carte satellitaire
  • Carte météo
  • Widgets météo
  • user-avatar
    Se connecter

    Météo par heure à Ganja

    Ce jour, 26 Avril, Vendredi

    Heure Température Précipitation Vent Pression Humidité
    00:00 +12°C° 0 mm 2 m/s 733 mmHg 60%
    01:00 +10°C° 0 mm 2 m/s 733 mmHg 61%
    02:00 +11°C° 0 mm 1 m/s 733 mmHg 61%
    03:00 +10°C° 0 mm 1 m/s 733 mmHg 62%
    04:00 +11°C° 0 mm 1 m/s 733 mmHg 62%
    05:00 +11°C° 0 mm 1 m/s 733 mmHg 61%
    06:00 +11°C° 0 mm 1 m/s 733 mmHg 61%
    07:00 +12°C° 0 mm 1 m/s 732 mmHg 57%
    08:00 +14°C° 0 mm 1 m/s 732 mmHg 53%
    09:00 +15°C° 0 mm 1 m/s 732 mmHg 49%
    10:00 +16°C° 0 mm 2 m/s 731 mmHg 46%
    11:00 +17°C° 0 mm 2 m/s 731 mmHg 44%
    12:00 +18°C° 0 mm 2 m/s 731 mmHg 42%
    13:00 +18°C° 0 mm 2 m/s 730 mmHg 41%
    14:00 +19°C° 0 mm 3 m/s 730 mmHg 40%
    15:00 +19°C° 0 mm 3 m/s 729 mmHg 40%
    16:00 +19°C° 0 mm 3 m/s 729 mmHg 42%
    17:00 +18°C° 0 mm 3 m/s 729 mmHg 45%
    18:00 +18°C° 0 mm 3 m/s 729 mmHg 48%
    19:00 +17°C° 0 mm 2 m/s 729 mmHg 51%
    20:00 +16°C° 0 mm 2 m/s 730 mmHg 53%
    21:00 +15°C° 0 mm 2 m/s 730 mmHg 56%
    22:00 +14°C° 0 mm 2 m/s 730 mmHg 58%
    23:00 +13°C° 0 mm 2 m/s 730 mmHg 59%

    Demain, 27 Avril, Samedi

    Heure Température Précipitation Vent Pression Humidité
    00:00 +13°C° 0 mm 1 m/s 730 mmHg 61%
    01:00 +12°C° 0 mm 1 m/s 730 mmHg 63%
    02:00 +12°C° 0 mm 1 m/s 730 mmHg 64%
    03:00 +11°C° 0 mm 1 m/s 730 mmHg 66%
    04:00 +11°C° 0 mm 1 m/s 730 mmHg 65%
    05:00 +12°C° 0 mm 1 m/s 730 mmHg 64%
    06:00 +12°C° 0 mm 1 m/s 730 mmHg 64%
    07:00 +13°C° 0 mm 1 m/s 729 mmHg 60%
    08:00 +14°C° 0 mm 2 m/s 729 mmHg 56%
    09:00 +16°C° 0 mm 2 m/s 729 mmHg 53%
    10:00 +17°C° 0 mm 2 m/s 728 mmHg 51%
    11:00 +18°C° 0 mm 2 m/s 728 mmHg 48%
    12:00 +19°C° 0 mm 2 m/s 728 mmHg 46%
    13:00 +19°C° 0.1 mm 3 m/s 727 mmHg 45%
    14:00 +20°C° 0.1 mm 3 m/s 727 mmHg 43%
    15:00 +21°C° 0.1 mm 3 m/s 727 mmHg 41%
    16:00 +20°C° 0.1 mm 3 m/s 727 mmHg 43%
    17:00 +19°C° 0.1 mm 3 m/s 726 mmHg 45%
    18:00 +19°C° 0.1 mm 3 m/s 726 mmHg 47%
    19:00 +18°C° 0 mm 3 m/s 727 mmHg 49%
    20:00 +17°C° 0 mm 2 m/s 727 mmHg 51%
    21:00 +16°C° 0 mm 2 m/s 728 mmHg 53%
    22:00 +15°C° 0 mm 2 m/s 727 mmHg 56%
    23:00 +14°C° 0 mm 2 m/s 727 mmHg 59%

    Après-demain, 28 Avril, Dimanche

    Heure Température Précipitation Vent Pression Humidité
    00:00 +13°C° 0 mm 2 m/s 727 mmHg 63%
    01:00 +12°C° 0 mm 2 m/s 727 mmHg 63%
    02:00 +12°C° 0 mm 1 m/s 727 mmHg 64%
    03:00 +12°C° 0 mm 1 m/s 726 mmHg 65%
    04:00 +12°C° 0 mm 1 m/s 726 mmHg 64%
    05:00 +12°C° 0 mm 1 m/s 726 mmHg 62%
    06:00 +12°C° 0 mm 2 m/s 726 mmHg 60%
    07:00 +14°C° 0 mm 2 m/s 726 mmHg 55%
    08:00 +16°C° 0 mm 2 m/s 725 mmHg 50%
    09:00 +17°C° 0 mm 2 m/s 725 mmHg 46%
    10:00 +18°C° 0 mm 2 m/s 725 mmHg 44%
    11:00 +19°C° 0 mm 2 m/s 724 mmHg 42%
    12:00 +21°C° 0 mm 2 m/s 724 mmHg 40%
    13:00 +21°C° 0 mm 2 m/s 723 mmHg 40%
    14:00 +22°C° 0 mm 1 m/s 723 mmHg 39%
    15:00 +23°C° 0 mm 1 m/s 723 mmHg 38%
    16:00 +22°C° 0 mm 1 m/s 723 mmHg 41%
    17:00 +22°C° 0 mm 1 m/s 723 mmHg 43%
    18:00 +22°C° 0 mm 1 m/s 723 mmHg 46%
    19:00 +21°C° 0.1 mm 1 m/s 723 mmHg 48%
    20:00 +19°C° 0.1 mm 1 m/s 724 mmHg 49%
    21:00 +16°C° 0.1 mm 1 m/s 724 mmHg 51%
    22:00 +16°C° 0 mm 1 m/s 724 mmHg 50%
    23:00 +16°C° 0 mm 2 m/s 724 mmHg 49%

    29 Avril, Lundi

    Heure Température Précipitation Vent Pression Humidité
    00:00 +15°C° 0 mm 2 m/s 724 mmHg 48%
    01:00 +15°C° 0 mm 2 m/s 724 mmHg 48%
    02:00 +15°C° 0 mm 2 m/s 724 mmHg 48%
    03:00 +14°C° 0 mm 2 m/s 724 mmHg 48%
    04:00 +14°C° 0 mm 2 m/s 724 mmHg 49%
    05:00 +15°C° 0 mm 2 m/s 724 mmHg 51%
    06:00 +14°C° 0 mm 3 m/s 724 mmHg 52%
    07:00 +16°C° 0 mm 2 m/s 724 mmHg 48%
    08:00 +18°C° 0 mm 2 m/s 724 mmHg 45%
    09:00 +20°C° 0 mm 2 m/s 724 mmHg 41%
    10:00 +21°C° 0 mm 2 m/s 724 mmHg 40%
    11:00 +23°C° 0 mm 2 m/s 724 mmHg 39%
    12:00 +24°C° 0 mm 2 m/s 723 mmHg 38%
    13:00 +24°C° 0.1 mm 2 m/s 723 mmHg 38%
    14:00 +25°C° 0.1 mm 2 m/s 723 mmHg 37%
    15:00 +25°C° 0.1 mm 2 m/s 722 mmHg 36%
    16:00 +25°C° 0.1 mm 2 m/s 722 mmHg 40%
    17:00 +24°C° 0.1 mm 2 m/s 722 mmHg 44%
    18:00 +23°C° 0.1 mm 2 m/s 722 mmHg 48%
    19:00 +23°C° 0.2 mm 1 m/s 723 mmHg 50%
    20:00 +22°C° 0.2 mm 1 m/s 723 mmHg 53%
    21:00 +21°C° 0.2 mm 1 m/s 724 mmHg 56%
    22:00 +20°C° 0.2 mm 1 m/s 724 mmHg 55%
    23:00 +20°C° 0.2 mm 1 m/s 724 mmHg 55%

    30 Avril, Mardi

    Heure Température Précipitation Vent Pression Humidité
    00:00 +19°C° 0.2 mm 1 m/s 724 mmHg 55%
    01:00 +18°C° 0 mm 1 m/s 723 mmHg 56%
    02:00 +18°C° 0 mm 1 m/s 723 mmHg 57%
    03:00 +16°C° 0 mm 1 m/s 723 mmHg 57%
    04:00 +16°C° 0 mm 1 m/s 723 mmHg 58%
    05:00 +16°C° 0 mm 1 m/s 723 mmHg 58%
    06:00 +16°C° 0 mm 1 m/s 723 mmHg 58%
    07:00 +17°C° 0 mm 2 m/s 723 mmHg 54%
    08:00 +19°C° 0 mm 2 m/s 723 mmHg 51%
    09:00 +20°C° 0 mm 3 m/s 723 mmHg 48%
    10:00 +20°C° 0 mm 3 m/s 723 mmHg 47%
    11:00 +21°C° 0 mm 3 m/s 723 mmHg 47%
    12:00 +22°C° 0 mm 3 m/s 723 mmHg 46%
    13:00 +21°C° 0.3 mm 4 m/s 722 mmHg 53%
    14:00 +20°C° 0.3 mm 4 m/s 722 mmHg 60%
    15:00 +19°C° 0.3 mm 4 m/s 722 mmHg 67%
    16:00 +18°C° 0.2 mm 3 m/s 722 mmHg 69%
    17:00 +18°C° 0.2 mm 2 m/s 722 mmHg 71%
    18:00 +19°C° 0.2 mm 1 m/s 722 mmHg 73%
    19:00 +18°C° 0 mm 1 m/s 722 mmHg 74%
    20:00 +18°C° 0 mm 1 m/s 723 mmHg 75%
    21:00 +16°C° 0 mm 1 m/s 723 mmHg 76%
    22:00 +16°C° 0 mm 1 m/s 723 mmHg 76%
    23:00 +16°C° 0 mm 1 m/s 723 mmHg 76%

    1 Mai, Mercredi

    Heure Température Précipitation Vent Pression Humidité
    00:00 +15°C° 0 mm 1 m/s 723 mmHg 75%
    01:00 +15°C° 0 mm 1 m/s 723 mmHg 74%
    02:00 +15°C° 0 mm 2 m/s 723 mmHg 73%
    03:00 +15°C° 0 mm 2 m/s 722 mmHg 72%
    04:00 +15°C° 0 mm 2 m/s 722 mmHg 70%
    05:00 +15°C° 0 mm 2 m/s 722 mmHg 68%
    06:00 +16°C° 0 mm 2 m/s 722 mmHg 66%
    07:00 +17°C° 0 mm 2 m/s 722 mmHg 60%
    08:00 +19°C° 0 mm 2 m/s 722 mmHg 55%
    09:00 +21°C° 0 mm 2 m/s 722 mmHg 49%
    10:00 +23°C° 0 mm 2 m/s 721 mmHg 46%
    11:00 +24°C° 0 mm 2 m/s 721 mmHg 43%
    12:00 +25°C° 0 mm 2 m/s 721 mmHg 40%
    13:00 +26°C° 0 mm 2 m/s 720 mmHg 39%
    14:00 +27°C° 0 mm 2 m/s 720 mmHg 37%
    15:00 +27°C° 0 mm 3 m/s 719 mmHg 35%
    16:00 +27°C° 0 mm 2 m/s 719 mmHg 38%
    17:00 +26°C° 0 mm 2 m/s 719 mmHg 40%
    18:00 +25°C° 0 mm 2 m/s 719 mmHg 43%
    19:00 +24°C° 0 mm 2 m/s 719 mmHg 45%
    20:00 +23°C° 0 mm 2 m/s 720 mmHg 47%
    21:00 +21°C° 0 mm 1 m/s 720 mmHg 50%
    22:00 +19°C° 0 mm 2 m/s 720 mmHg 50%
    23:00 +19°C° 0 mm 2 m/s 720 mmHg 50%
    Voir plus